Regional Weather Roundup
Issued by NWS Jackson, KY

Home | Current Version | Previous Version | Graphics & Text | Print | Product List | Glossary On
Versions: 1 2 3 4 5 6 7 8 9 10 11 12 13 14 15 16 17 18 19 20 21 22 23 24 25 26 27 28 29 30 31 32 33 34 35 36 37 38 39 40 41 42 43 44 45 46 47
000
ASUS43 KJKL 062110
RWRJKL

EAST KENTUCKY HOURLY WEATHER ROUNDUP
NATIONAL WEATHER SERVICE JACKSON KY
500 PM EDT MON JUL 06 2015

NOTE: "FAIR" INDICATES FEW OR NO CLOUDS BELOW 12,000 FEET WITH
NO SIGNIFICANT WEATHER AND/OR OBSTRUCTIONS TO VISIBILITY.

* THESE REPORTS ARE NOT UNDER NWS QUALITY CONTROL AND MAY NOT
  REPORT WEATHER SUCH AS PRECIPITATION AND FOG.

KYZ079-080-083-085-087-088-110-112-115-119-120-062200
...EASTERN KENTUCKY...

CITY           SKY/WX    TMP DP  RH WIND       PRES   REMARKS
JACKSON        MOSUNNY   81  67  62 CALM      30.11F
LONDON         MOSUNNY   83  63  50 W8        30.11F
SOMERSET*      SUNNY     81  64  57 W9        30.10F
MONTICELLO*    MOSUNNY   85  69  58 SW3       30.12F
MIDDLESBORO*   MOSUNNY   85  66  53 W6        30.11F
HARLAN APT*      N/A     82  63  51 CALM      30.13F
HAZARD APT*    PTCLDY    81  64  57 SW3       30.11F
BLACK MTN*       N/A     73  63  68 NE3         N/A
PIKEVILLE APT* SUNNY     75  68  78 CALM      30.12F
BIG SANDY*     MOCLDY    79  69  70 S6        30.11S
MOREHEAD APT*  PTCLDY    82  66  57 W6G12     30.10F
$$

KYZ035-036-041-042-044-050-067-078-099-062200
...CENTRAL KENTUCKY...

CITY           SKY/WX    TMP DP  RH WIND       PRES   REMARKS
MT STERLING*   MOSUNNY   82  70  65 SW5       30.09F
FLEMING/MASON* MOSUNNY   82  66  57 W6        30.07F
DANVILLE*      SUNNY     84  68  58 W8        30.10F
RICHMOND*      MOSUNNY   82  66  57 SW8       30.08F
LEXINGTON      SUNNY     84  66  54 SW12      30.07F
FRANKFORT      SUNNY     84  65  52 SW9       30.04F
$$

KYZ091>093-OHZ055-061-077-WVZ005-015-034-035-042-062200
...SOUTHERN OHIO/WEST VIRGINIA...

CITY           SKY/WX    TMP DP  RH WIND       PRES   REMARKS
COVINGTON      MOSUNNY   83  66  56 SW5       30.04F
COLUMBUS       MOSUNNY   83  64  52 W8        30.01F
DAYTON         MOSUNNY   84  65  52 SW9       30.04F
WILMINGTON     MOSUNNY   82  61  48 SW9       30.04F
HUNTINGTON     MOSUNNY   81  65  58 W7        30.06F
CHARLESTON     PTSUNNY   78  68  71 SW10      30.07F
PINEVILLE*     PTSUNNY   75  70  84 MISG      30.19F
BECKLEY        PTSUNNY   73  64  73 W7        30.17S
BLUEFIELD      CLOUDY    73  64  73 W9        30.20S
$$

VAZ002-007-008-TNZ017-027-036-066-071-062200
...SOUTHWEST VIRGINIA/EAST TENNESSEE...

CITY           SKY/WX    TMP DP  RH WIND       PRES   REMARKS
WISE*          PTSUNNY   73  61  64 W6        30.21F
JONESVILLE*      N/A    N/A N/A N/A MISG        N/A
ABINGDON*      PTSUNNY   77  66  67 W5        30.17F
BRISTOL        PTSUNNY   82  64  54 W9        30.14F
KNOXVILLE      PTSUNNY   84  67  56 SW7       30.10F
OAK RIDGE      LGT RAIN  83  69  62 CALM      30.12S
CROSSVILLE     MOSUNNY   81  65  58 SW7       30.15F
NASHVILLE      PTSUNNY   87  72  60 S8        30.08F HX  93
$$

...KEY TO REMARKS...
VSB - VISIBILITY IN MILES
WCI - WIND CHILL INDEX
HX  - HEAT INDEX

$$


USA.gov is the U.S. government's official web portal to all federal, state and local government web resources and services.